This is the latest recevied weather packets stored in our database for station/object K9YK-13. If no packets are shown the sender has not sent any weather packets the latest 10 day(s).
| Time | Temp. | Humidity | Pressure | Rain* | Wind** | Luminosity | Snow |
|---|---|---|---|---|---|---|---|
| 1778176269 | 20° C | 40% | 0 hPa | 0 mm | - | - | - |
| 1778175969 | 20.56° C | 47% | 0 hPa | 0 mm | - | - | - |
| 1778175669 | 20° C | 44% | 0 hPa | 0 mm | - | - | - |
| 1778175369 | 20° C | 46% | 0 hPa | 0 mm | - | - | - |
| 1778175069 | 20° C | 49% | 0 hPa | 0 mm | - | - | - |
| 1778174769 | 19.44° C | 47% | 0 hPa | 0 mm | - | - | - |
| 1778174469 | 18.33° C | 50% | 0 hPa | 0 mm | - | - | - |
| 1778174169 | 17.78° C | 48% | 0 hPa | 0 mm | - | - | - |
| 1778173869 | 17.22° C | 47% | 0 hPa | 0 mm | - | - | - |
| 1778173569 | 17.78° C | 42% | 0 hPa | 0 mm | - | - | - |
| 1778173269 | 17.78° C | 42% | 0 hPa | 0 mm | - | - | - |
| 1778172969 | 17.78° C | 42% | 0 hPa | 0 mm | - | - | - |
| 1778172669 | 17.78° C | 44% | 0 hPa | 0 mm | - | - | - |
| 1778172369 | 16.67° C | 48% | 0 hPa | 0 mm | - | - | - |
| 1778172069 | 17.78° C | 44% | 0 hPa | 0 mm | - | - | - |
| 1778171769 | 17.22° C | 46% | 0 hPa | 0 mm | - | - | - |
| 1778171469 | 16.67° C | 57% | 0 hPa | 0 mm | - | - | - |
| 1778171169 | 17.78° C | 44% | 0 hPa | 0 mm | - | - | - |
| 1778170869 | 17.78° C | 50% | 0 hPa | 0 mm | - | - | - |
| 1778170569 | 17.22° C | 49% | 0 hPa | 0 mm | - | - | - |
| 1778170269 | 17.22° C | 48% | 0 hPa | 0 mm | - | - | - |
| 1778169969 | 16.67° C | 48% | 0 hPa | 0 mm | - | - | - |
| 1778169669 | 16.67° C | 51% | 0 hPa | 0 mm | - | - | - |
| 1778169369 | 16.67° C | 48% | 0 hPa | 0 mm | - | - | - |
| 1778169069 | 17.78° C | 50% | 0 hPa | 0 mm | - | - | - |
* Rain latest hour (hover to see other rain measurements)
** Current wind speed in m/s (hover to see current wind gust speed)